Year,Month,Day,Hour,Minute,Value (Times are PST for temperature in C)
2021,07,02,00,00,18.60
2021,07,02,00,01,18.60
2021,07,02,00,02,18.60
2021,07,02,00,03,18.60
2021,07,02,00,04,18.60
2021,07,02,00,05,18.60
2021,07,02,00,06,18.60
2021,07,02,00,07,18.60
2021,07,02,00,08,18.60
2021,07,02,00,09,18.60
2021,07,02,00,10,18.60
2021,07,02,00,11,18.60
2021,07,02,00,12,18.60
2021,07,02,00,13,18.60
2021,07,02,00,14,18.50
2021,07,02,00,15,18.50
2021,07,02,00,16,18.50
2021,07,02,00,17,18.50
2021,07,02,00,18,18.50
2021,07,02,00,19,18.50
2021,07,02,00,20,18.50
2021,07,02,00,21,18.50
2021,07,02,00,22,18.50
2021,07,02,00,23,18.50
2021,07,02,00,24,18.50
2021,07,02,00,25,18.40
2021,07,02,00,26,18.40
2021,07,02,00,27,18.40
2021,07,02,00,28,18.40
2021,07,02,00,29,18.40
2021,07,02,00,30,18.40
2021,07,02,00,31,18.40
2021,07,02,00,32,18.40
2021,07,02,00,33,18.40
2021,07,02,00,34,18.40
2021,07,02,00,35,18.40
2021,07,02,00,36,18.40
2021,07,02,00,37,18.40
2021,07,02,00,38,18.40
2021,07,02,00,39,18.30
2021,07,02,00,40,18.30
2021,07,02,00,41,18.30
2021,07,02,00,42,18.30
2021,07,02,00,43,18.30
2021,07,02,00,44,18.30
2021,07,02,00,45,18.30
2021,07,02,00,46,18.30
2021,07,02,00,47,18.30
2021,07,02,00,48,18.30
2021,07,02,00,49,18.20
2021,07,02,00,50,18.20
2021,07,02,00,51,18.20
2021,07,02,00,52,18.20
2021,07,02,00,53,18.20
2021,07,02,00,54,18.20
2021,07,02,00,55,18.20
2021,07,02,00,56,18.20
2021,07,02,00,57,18.20
2021,07,02,00,58,18.20
2021,07,02,00,59,18.20
2021,07,02,01,00,18.20
2021,07,02,01,01,18.20
2021,07,02,01,02,18.20
2021,07,02,01,03,18.20
2021,07,02,01,04,18.20
2021,07,02,01,05,18.20
2021,07,02,01,06,18.20
2021,07,02,01,07,18.20
2021,07,02,01,08,18.20
2021,07,02,01,09,18.20
2021,07,02,01,10,18.20
2021,07,02,01,11,18.20
2021,07,02,01,12,18.20
2021,07,02,01,13,18.20
2021,07,02,01,14,18.20
2021,07,02,01,15,18.20
2021,07,02,01,16,18.20
2021,07,02,01,17,18.20
2021,07,02,01,18,18.20
2021,07,02,01,19,18.20
2021,07,02,01,20,18.20
2021,07,02,01,21,18.20
2021,07,02,01,22,18.20
2021,07,02,01,23,18.20
2021,07,02,01,24,18.20
2021,07,02,01,25,18.20
2021,07,02,01,26,18.20
2021,07,02,01,27,18.20
2021,07,02,01,28,18.20
2021,07,02,01,29,18.20
2021,07,02,01,30,18.20
2021,07,02,01,31,18.20
2021,07,02,01,32,18.20
2021,07,02,01,33,18.20
2021,07,02,01,34,18.20
2021,07,02,01,35,18.20
2021,07,02,01,36,18.20
2021,07,02,01,37,18.20
2021,07,02,01,38,18.20
2021,07,02,01,39,18.20
2021,07,02,01,40,18.20
2021,07,02,01,41,18.20
2021,07,02,01,42,18.20
2021,07,02,01,43,18.10
2021,07,02,01,44,18.10
2021,07,02,01,45,18.10
2021,07,02,01,46,18.10
2021,07,02,01,47,18.10
2021,07,02,01,48,18.10
2021,07,02,01,49,18.10
2021,07,02,01,50,18.10
2021,07,02,01,51,18.10
2021,07,02,01,52,18.10
2021,07,02,01,53,18.00
2021,07,02,01,54,18.00
2021,07,02,01,55,18.00
2021,07,02,01,56,18.00
2021,07,02,01,57,18.00
2021,07,02,01,58,18.00
2021,07,02,01,59,18.00
2021,07,02,02,00,17.90
2021,07,02,02,01,17.90
2021,07,02,02,02,17.90
2021,07,02,02,03,17.90
2021,07,02,02,04,17.90
2021,07,02,02,05,17.90
2021,07,02,02,06,17.90
2021,07,02,02,07,17.90
2021,07,02,02,08,17.90
2021,07,02,02,09,17.90
2021,07,02,02,10,17.90
2021,07,02,02,11,17.80
2021,07,02,02,12,17.80
2021,07,02,02,13,17.80
2021,07,02,02,14,17.80
2021,07,02,02,15,17.80
2021,07,02,02,16,17.80
2021,07,02,02,17,17.80
2021,07,02,02,18,17.80
2021,07,02,02,19,17.80
2021,07,02,02,20,17.80
2021,07,02,02,21,17.70
2021,07,02,02,22,17.70
2021,07,02,02,23,17.70
2021,07,02,02,24,17.70
2021,07,02,02,25,17.70
2021,07,02,02,26,17.70
2021,07,02,02,27,17.70
2021,07,02,02,28,17.70
2021,07,02,02,29,17.70
2021,07,02,02,30,17.70
2021,07,02,02,31,17.70
2021,07,02,02,32,17.70
2021,07,02,02,33,17.70
2021,07,02,02,34,17.70
2021,07,02,02,35,17.70
2021,07,02,02,36,17.70
2021,07,02,02,37,17.70
2021,07,02,02,38,17.70
2021,07,02,02,39,17.70
2021,07,02,02,40,17.70
2021,07,02,02,41,17.70
2021,07,02,02,42,17.70
2021,07,02,02,43,17.70
2021,07,02,02,44,17.70
2021,07,02,02,45,17.70
2021,07,02,02,46,17.70
2021,07,02,02,47,17.60
2021,07,02,02,48,17.60
2021,07,02,02,49,17.60
2021,07,02,02,50,17.60
2021,07,02,02,51,17.60
2021,07,02,02,52,17.60
2021,07,02,02,53,17.60
2021,07,02,02,54,17.60
2021,07,02,02,55,17.60
2021,07,02,02,56,17.60
2021,07,02,02,57,17.60
2021,07,02,02,58,17.60
2021,07,02,02,59,17.60
2021,07,02,03,00,17.60
2021,07,02,03,01,17.60
2021,07,02,03,02,17.60
2021,07,02,03,03,17.60
2021,07,02,03,04,17.60
2021,07,02,03,05,17.60
2021,07,02,03,06,17.60
2021,07,02,03,07,17.50
2021,07,02,03,08,17.50
2021,07,02,03,09,17.50
2021,07,02,03,10,17.50
2021,07,02,03,11,17.50
2021,07,02,03,12,17.50
2021,07,02,03,13,17.40
2021,07,02,03,14,17.40
2021,07,02,03,15,17.40
2021,07,02,03,16,17.40
2021,07,02,03,17,17.40
2021,07,02,03,18,17.40
2021,07,02,03,19,17.40
2021,07,02,03,20,17.40
2021,07,02,03,21,17.40
2021,07,02,03,22,17.40
2021,07,02,03,23,17.40
2021,07,02,03,24,17.40
2021,07,02,03,25,17.40
2021,07,02,03,26,17.40
2021,07,02,03,27,17.40
2021,07,02,03,28,17.40
2021,07,02,03,29,17.40
2021,07,02,03,30,17.40
2021,07,02,03,31,17.40
2021,07,02,03,32,17.40
2021,07,02,03,33,17.40
2021,07,02,03,34,17.40
2021,07,02,03,35,17.40
2021,07,02,03,36,17.40
2021,07,02,03,37,17.40
2021,07,02,03,38,17.40
2021,07,02,03,39,17.40
2021,07,02,03,40,17.40
2021,07,02,03,41,17.40
2021,07,02,03,42,17.40
2021,07,02,03,43,17.40
2021,07,02,03,44,17.40
2021,07,02,03,45,17.30
2021,07,02,03,46,17.30
2021,07,02,03,47,17.30
2021,07,02,03,48,17.30
2021,07,02,03,49,17.30
2021,07,02,03,50,17.40
2021,07,02,03,51,17.40
2021,07,02,03,52,17.40
2021,07,02,03,53,17.40
2021,07,02,03,54,17.40
2021,07,02,03,55,17.40
2021,07,02,03,56,17.40
2021,07,02,03,57,17.40
2021,07,02,03,58,17.40
2021,07,02,03,59,17.40
2021,07,02,04,00,17.40
2021,07,02,04,01,17.40
2021,07,02,04,02,17.50
2021,07,02,04,03,17.50
2021,07,02,04,04,17.50
2021,07,02,04,05,17.50
2021,07,02,04,06,17.50
2021,07,02,04,07,17.50
2021,07,02,04,08,17.50
2021,07,02,04,09,17.60
2021,07,02,04,10,17.60
2021,07,02,04,11,17.60
2021,07,02,04,12,17.60
2021,07,02,04,13,17.60
2021,07,02,04,14,17.60
2021,07,02,04,15,17.60
2021,07,02,04,16,17.60
2021,07,02,04,17,17.60
2021,07,02,04,18,17.70
2021,07,02,04,19,17.70
2021,07,02,04,20,17.70
2021,07,02,04,21,17.70
2021,07,02,04,22,17.70
2021,07,02,04,23,17.70
2021,07,02,04,24,17.80
2021,07,02,04,25,17.80
2021,07,02,04,26,17.80
2021,07,02,04,27,17.80
2021,07,02,04,28,17.90
2021,07,02,04,29,17.90
2021,07,02,04,30,17.90
2021,07,02,04,31,17.90
2021,07,02,04,32,17.90
2021,07,02,04,33,17.90
2021,07,02,04,34,17.90
2021,07,02,04,35,17.90
2021,07,02,04,36,17.90
2021,07,02,04,37,18.00
2021,07,02,04,38,18.00
2021,07,02,04,39,18.00
2021,07,02,04,40,18.00
2021,07,02,04,41,18.00
2021,07,02,04,42,18.00
2021,07,02,04,43,18.00
2021,07,02,04,44,18.00
2021,07,02,04,45,18.10
2021,07,02,04,46,18.10
2021,07,02,04,47,18.10
2021,07,02,04,48,18.10
2021,07,02,04,49,18.10
2021,07,02,04,50,18.10
2021,07,02,04,51,18.10
2021,07,02,04,52,18.10
2021,07,02,04,53,18.10
2021,07,02,04,54,18.10
2021,07,02,04,55,18.10
2021,07,02,04,56,18.20
2021,07,02,04,57,18.20
2021,07,02,04,58,18.20
2021,07,02,04,59,18.20
2021,07,02,05,00,18.10
2021,07,02,05,01,18.10
2021,07,02,05,02,18.10
2021,07,02,05,03,18.10
2021,07,02,05,04,18.00
2021,07,02,05,05,18.00
2021,07,02,05,06,18.00
2021,07,02,05,07,17.90
2021,07,02,05,08,17.90
2021,07,02,05,09,17.90
2021,07,02,05,10,17.90
2021,07,02,05,11,17.90
2021,07,02,05,12,17.90
2021,07,02,05,13,17.90
2021,07,02,05,14,17.90
2021,07,02,05,15,18.00
2021,07,02,05,16,18.00
2021,07,02,05,17,18.00
2021,07,02,05,18,18.00
2021,07,02,05,19,18.00
2021,07,02,05,20,18.10
2021,07,02,05,21,18.10
2021,07,02,05,22,18.10
2021,07,02,05,23,18.10
2021,07,02,05,24,18.00
2021,07,02,05,25,18.00
2021,07,02,05,26,17.90
2021,07,02,05,27,17.90
2021,07,02,05,28,17.90
2021,07,02,05,29,17.90
2021,07,02,05,30,17.90
2021,07,02,05,31,17.90
2021,07,02,05,32,17.90
2021,07,02,05,33,17.90
2021,07,02,05,34,17.90
2021,07,02,05,35,17.90
2021,07,02,05,36,17.90
2021,07,02,05,37,18.00
2021,07,02,05,38,18.00
2021,07,02,05,39,18.00
2021,07,02,05,40,18.00
2021,07,02,05,41,18.00
2021,07,02,05,42,18.10
2021,07,02,05,43,18.00
2021,07,02,05,44,18.00
2021,07,02,05,45,18.10
2021,07,02,05,46,18.10
2021,07,02,05,47,18.10
2021,07,02,05,48,18.10
2021,07,02,05,49,18.00
2021,07,02,05,50,18.10
2021,07,02,05,51,18.10
2021,07,02,05,52,18.10
2021,07,02,05,53,18.10
2021,07,02,05,54,18.10
2021,07,02,05,55,18.10
2021,07,02,05,56,18.10
2021,07,02,05,57,18.10
2021,07,02,05,58,18.10
2021,07,02,05,59,18.10
2021,07,02,06,00,18.20
2021,07,02,06,01,18.20
2021,07,02,06,02,18.20
2021,07,02,06,03,18.20
2021,07,02,06,04,18.20
2021,07,02,06,05,18.20
2021,07,02,06,06,18.20
2021,07,02,06,07,18.20
2021,07,02,06,08,18.10
2021,07,02,06,09,18.10
2021,07,02,06,10,18.10
2021,07,02,06,11,18.10
2021,07,02,06,12,18.10
2021,07,02,06,13,18.00
2021,07,02,06,14,18.00
2021,07,02,06,15,18.00
2021,07,02,06,16,18.00
2021,07,02,06,17,18.00
2021,07,02,06,18,18.00
2021,07,02,06,19,18.00
2021,07,02,06,20,18.00
2021,07,02,06,21,18.00
2021,07,02,06,22,18.00
2021,07,02,06,23,18.00
2021,07,02,06,24,18.00
2021,07,02,06,25,18.00
2021,07,02,06,26,18.10
2021,07,02,06,27,18.10
2021,07,02,06,28,18.10
2021,07,02,06,29,18.10
2021,07,02,06,30,18.10
2021,07,02,06,31,18.20
2021,07,02,06,32,18.20
2021,07,02,06,33,18.20
2021,07,02,06,34,18.30
2021,07,02,06,35,18.30
2021,07,02,06,36,18.40
2021,07,02,06,37,18.40
2021,07,02,06,38,18.50
2021,07,02,06,39,18.50
2021,07,02,06,40,18.50
2021,07,02,06,41,18.60
2021,07,02,06,42,18.60
2021,07,02,06,43,18.60
2021,07,02,06,44,18.60
2021,07,02,06,45,18.60
2021,07,02,06,46,18.60
2021,07,02,06,47,18.60
2021,07,02,06,48,18.60
2021,07,02,06,49,18.60
2021,07,02,06,50,18.70
2021,07,02,06,51,18.70
2021,07,02,06,52,18.70
2021,07,02,06,53,18.70
2021,07,02,06,54,18.70
2021,07,02,06,55,18.70
2021,07,02,06,56,18.80
2021,07,02,06,57,18.80
2021,07,02,06,58,18.80
2021,07,02,06,59,18.80
2021,07,02,07,00,18.80
2021,07,02,07,01,18.80
2021,07,02,07,02,18.80
2021,07,02,07,03,18.80
2021,07,02,07,04,18.80
2021,07,02,07,05,18.80
2021,07,02,07,06,18.80
2021,07,02,07,07,18.80
2021,07,02,07,08,18.90
2021,07,02,07,09,18.90
2021,07,02,07,10,18.90
2021,07,02,07,11,18.90
2021,07,02,07,12,18.90
2021,07,02,07,13,18.90
2021,07,02,07,14,18.90
2021,07,02,07,15,18.90
2021,07,02,07,16,18.90
2021,07,02,07,17,18.90
2021,07,02,07,18,18.90
2021,07,02,07,19,18.90
2021,07,02,07,20,18.90
2021,07,02,07,21,18.90
2021,07,02,07,22,18.90
2021,07,02,07,23,18.90
2021,07,02,07,24,18.90
2021,07,02,07,25,18.90
2021,07,02,07,26,19.00
2021,07,02,07,27,19.00
2021,07,02,07,28,19.00
2021,07,02,07,29,19.00
2021,07,02,07,30,19.00
2021,07,02,07,31,19.00
2021,07,02,07,32,19.00
2021,07,02,07,33,19.00
2021,07,02,07,34,19.00
2021,07,02,07,35,19.00
2021,07,02,07,36,19.10
2021,07,02,07,37,19.00
2021,07,02,07,38,19.00
2021,07,02,07,39,19.00
2021,07,02,07,40,19.00
2021,07,02,07,41,19.00
2021,07,02,07,42,19.00
2021,07,02,07,43,19.00
2021,07,02,07,44,19.00
2021,07,02,07,45,19.10
2021,07,02,07,46,19.10
2021,07,02,07,47,19.10
2021,07,02,07,48,19.20
2021,07,02,07,49,19.20
2021,07,02,07,50,19.20
2021,07,02,07,51,19.20
2021,07,02,07,52,19.20
2021,07,02,07,53,19.20
2021,07,02,07,54,19.20
2021,07,02,07,55,19.30
2021,07,02,07,56,19.30
2021,07,02,07,57,19.30
2021,07,02,07,58,19.40
2021,07,02,07,59,19.40
2021,07,02,08,00,19.40
2021,07,02,08,01,19.50
2021,07,02,08,02,19.50
2021,07,02,08,03,19.60
2021,07,02,08,04,19.60
2021,07,02,08,05,19.60
2021,07,02,08,06,19.60
2021,07,02,08,07,19.60
2021,07,02,08,08,19.60
2021,07,02,08,09,19.60
2021,07,02,08,10,19.60
2021,07,02,08,11,19.60
2021,07,02,08,12,19.60
2021,07,02,08,13,19.60
2021,07,02,08,14,19.60
2021,07,02,08,15,19.70
2021,07,02,08,16,19.70
2021,07,02,08,17,19.70
2021,07,02,08,18,19.70
2021,07,02,08,19,19.70
2021,07,02,08,20,19.70
2021,07,02,08,21,19.70
2021,07,02,08,22,19.80
2021,07,02,08,23,19.80
2021,07,02,08,24,19.80
2021,07,02,08,25,19.90
2021,07,02,08,26,19.90
2021,07,02,08,27,19.90
2021,07,02,08,28,20.00
2021,07,02,08,29,20.10
2021,07,02,08,30,20.10
2021,07,02,08,31,20.20
2021,07,02,08,32,20.30
2021,07,02,08,33,20.20
2021,07,02,08,34,20.20
2021,07,02,08,35,20.20
2021,07,02,08,36,20.20
2021,07,02,08,37,20.30
2021,07,02,08,38,20.30
2021,07,02,08,39,20.30
2021,07,02,08,40,20.30
2021,07,02,08,41,20.30
2021,07,02,08,42,20.30
2021,07,02,08,43,20.30
2021,07,02,08,44,20.40
2021,07,02,08,45,20.50
2021,07,02,08,46,20.50
2021,07,02,08,47,20.60
2021,07,02,08,48,20.60
2021,07,02,08,49,20.50
2021,07,02,08,50,20.50
2021,07,02,08,51,20.50
2021,07,02,08,52,20.40
2021,07,02,08,53,20.40
2021,07,02,08,54,20.40
2021,07,02,08,55,20.40
2021,07,02,08,56,20.40
2021,07,02,08,57,20.50
2021,07,02,08,58,20.50
2021,07,02,08,59,20.50
2021,07,02,09,00,20.50
2021,07,02,09,01,20.60
2021,07,02,09,02,20.60
2021,07,02,09,03,20.60
2021,07,02,09,04,20.70
2021,07,02,09,05,20.70
2021,07,02,09,06,20.70
2021,07,02,09,07,20.70
2021,07,02,09,08,20.80
2021,07,02,09,09,20.80
2021,07,02,09,10,20.80
2021,07,02,09,11,20.90
2021,07,02,09,12,20.90
2021,07,02,09,13,20.90
2021,07,02,09,14,20.90
2021,07,02,09,15,20.90
2021,07,02,09,16,21.00
2021,07,02,09,17,21.10
2021,07,02,09,18,21.20
2021,07,02,09,19,21.30
2021,07,02,09,20,21.30
2021,07,02,09,21,21.30
2021,07,02,09,22,21.20
2021,07,02,09,23,21.20
2021,07,02,09,24,21.10
2021,07,02,09,25,21.10
2021,07,02,09,26,21.10
2021,07,02,09,27,21.20
2021,07,02,09,28,21.20
2021,07,02,09,29,21.30
2021,07,02,09,30,21.30
2021,07,02,09,31,21.30
2021,07,02,09,32,21.40
2021,07,02,09,33,21.40
2021,07,02,09,34,21.40
2021,07,02,09,35,21.40
2021,07,02,09,36,21.40
2021,07,02,09,37,21.40
2021,07,02,09,38,21.40
2021,07,02,09,39,21.40
2021,07,02,09,40,21.40
2021,07,02,09,41,21.40
2021,07,02,09,42,21.40
2021,07,02,09,43,21.40
2021,07,02,09,44,21.40
2021,07,02,09,45,21.50
2021,07,02,09,46,21.50
2021,07,02,09,47,21.50
2021,07,02,09,48,21.50
2021,07,02,09,49,21.60
2021,07,02,09,50,21.60
2021,07,02,09,51,21.70
2021,07,02,09,52,21.80
2021,07,02,09,53,21.80
2021,07,02,09,54,21.90
2021,07,02,09,55,22.00
2021,07,02,09,56,22.10
2021,07,02,09,57,22.20
2021,07,02,09,58,22.30
2021,07,02,09,59,22.40
2021,07,02,10,00,22.50
2021,07,02,10,01,22.60
2021,07,02,10,02,22.60
2021,07,02,10,03,22.50
2021,07,02,10,04,22.50
2021,07,02,10,05,22.60
2021,07,02,10,06,22.60
2021,07,02,10,07,22.60
2021,07,02,10,08,22.70
2021,07,02,10,09,22.80
2021,07,02,10,10,22.90
2021,07,02,10,11,22.90
2021,07,02,10,12,22.90
2021,07,02,10,13,22.90
2021,07,02,10,14,22.90
2021,07,02,10,15,23.00
2021,07,02,10,16,22.90
2021,07,02,10,17,22.90
2021,07,02,10,18,22.90
2021,07,02,10,19,22.90
2021,07,02,10,20,22.90
2021,07,02,10,21,22.80
2021,07,02,10,22,22.80
2021,07,02,10,23,22.80
2021,07,02,10,24,22.70
2021,07,02,10,25,22.80
2021,07,02,10,26,22.80
2021,07,02,10,27,22.80
2021,07,02,10,28,22.80
2021,07,02,10,29,22.80
2021,07,02,10,30,22.90
2021,07,02,10,31,23.00
2021,07,02,10,32,23.10
2021,07,02,10,33,23.10
2021,07,02,10,34,23.00
2021,07,02,10,35,23.00
2021,07,02,10,36,23.00
2021,07,02,10,37,23.10
2021,07,02,10,38,23.10
2021,07,02,10,39,23.20
2021,07,02,10,40,23.20
2021,07,02,10,41,23.10
2021,07,02,10,42,23.10
2021,07,02,10,43,23.10
2021,07,02,10,44,23.10
2021,07,02,10,45,23.10
2021,07,02,10,46,23.10
2021,07,02,10,47,23.20
2021,07,02,10,48,23.20
2021,07,02,10,49,23.30
2021,07,02,10,50,23.30
2021,07,02,10,51,23.40
2021,07,02,10,52,23.40
2021,07,02,10,53,23.50
2021,07,02,10,54,23.50
2021,07,02,10,55,23.50
2021,07,02,10,56,23.60
2021,07,02,10,57,23.60
2021,07,02,10,58,23.60
2021,07,02,10,59,23.70
2021,07,02,11,00,23.80
2021,07,02,11,01,23.80
2021,07,02,11,02,23.70
2021,07,02,11,03,23.70
2021,07,02,11,04,23.70
2021,07,02,11,05,23.60
2021,07,02,11,06,23.60
2021,07,02,11,07,23.60
2021,07,02,11,08,23.70
2021,07,02,11,09,23.70
2021,07,02,11,10,23.70
2021,07,02,11,11,23.70
2021,07,02,11,12,23.70
2021,07,02,11,13,23.70
2021,07,02,11,14,23.70
2021,07,02,11,15,23.70
2021,07,02,11,16,23.70
2021,07,02,11,17,23.70
2021,07,02,11,18,23.80
2021,07,02,11,19,23.80
2021,07,02,11,20,23.90
2021,07,02,11,21,24.00
2021,07,02,11,22,24.10
2021,07,02,11,23,24.10
2021,07,02,11,24,24.20
2021,07,02,11,25,24.20
2021,07,02,11,26,24.20
2021,07,02,11,27,24.30
2021,07,02,11,28,24.30
2021,07,02,11,29,24.40
2021,07,02,11,30,24.50
2021,07,02,11,31,24.60
2021,07,02,11,32,24.60
2021,07,02,11,33,24.70
2021,07,02,11,34,24.80
2021,07,02,11,35,24.80
2021,07,02,11,36,24.80
2021,07,02,11,37,24.80
2021,07,02,11,38,24.90
2021,07,02,11,39,24.90
2021,07,02,11,40,24.90
2021,07,02,11,41,24.90
2021,07,02,11,42,24.90
2021,07,02,11,43,24.90
2021,07,02,11,44,25.00
2021,07,02,11,45,25.00
2021,07,02,11,46,25.10
2021,07,02,11,47,25.10
2021,07,02,11,48,25.00
2021,07,02,11,49,25.00
2021,07,02,11,50,25.00
2021,07,02,11,51,24.90
2021,07,02,11,52,24.90
2021,07,02,11,53,24.90
2021,07,02,11,54,24.80
2021,07,02,11,55,24.80
2021,07,02,11,56,24.80
2021,07,02,11,57,24.80
2021,07,02,11,58,24.80
2021,07,02,11,59,24.80
2021,07,02,12,00,24.80
2021,07,02,12,01,24.70
2021,07,02,12,02,24.70
2021,07,02,12,03,24.70
2021,07,02,12,04,24.70
2021,07,02,12,05,24.70
2021,07,02,12,06,24.70
2021,07,02,12,07,24.70
2021,07,02,12,08,24.70
2021,07,02,12,09,24.80
2021,07,02,12,10,24.90
2021,07,02,12,11,24.90
2021,07,02,12,12,25.00
2021,07,02,12,13,25.10
2021,07,02,12,14,25.10
2021,07,02,12,15,25.20
2021,07,02,12,16,25.40
2021,07,02,12,17,25.50
2021,07,02,12,18,25.50
2021,07,02,12,19,25.50
2021,07,02,12,20,25.40
2021,07,02,12,21,25.30
2021,07,02,12,22,25.20
2021,07,02,12,23,25.10
2021,07,02,12,24,25.10
2021,07,02,12,25,25.00
2021,07,02,12,26,25.00
2021,07,02,12,27,25.10
2021,07,02,12,28,25.20
2021,07,02,12,29,25.20
2021,07,02,12,30,25.30
2021,07,02,12,31,25.40
2021,07,02,12,32,25.40
2021,07,02,12,33,25.40
2021,07,02,12,34,25.40
2021,07,02,12,35,25.40
2021,07,02,12,36,25.40
2021,07,02,12,37,25.30
2021,07,02,12,38,25.30
2021,07,02,12,39,25.40
2021,07,02,12,40,25.40
2021,07,02,12,41,25.50
2021,07,02,12,42,25.60
2021,07,02,12,43,25.60
2021,07,02,12,44,25.50
2021,07,02,12,45,25.40
2021,07,02,12,46,25.40
2021,07,02,12,47,25.40
2021,07,02,12,48,25.40
2021,07,02,12,49,25.40
2021,07,02,12,50,25.40
2021,07,02,12,51,25.20
2021,07,02,12,52,25.20
2021,07,02,12,53,25.30
2021,07,02,12,54,25.50
2021,07,02,12,55,25.70
2021,07,02,12,56,25.80
2021,07,02,12,57,25.80
2021,07,02,12,58,25.80
2021,07,02,12,59,25.80
2021,07,02,13,00,25.80
2021,07,02,13,01,25.80
2021,07,02,13,02,25.70
2021,07,02,13,03,25.60
2021,07,02,13,04,25.50
2021,07,02,13,05,25.40
2021,07,02,13,06,25.50
2021,07,02,13,07,25.60
2021,07,02,13,08,25.60
2021,07,02,13,09,25.70
2021,07,02,13,10,25.70
2021,07,02,13,11,25.70
2021,07,02,13,12,25.70
2021,07,02,13,13,25.70
2021,07,02,13,14,25.70
2021,07,02,13,15,25.70
2021,07,02,13,16,25.70
2021,07,02,13,17,25.80
2021,07,02,13,18,25.90
2021,07,02,13,19,25.90
2021,07,02,13,20,25.90
2021,07,02,13,21,25.90
2021,07,02,13,22,25.90
2021,07,02,13,23,25.90
2021,07,02,13,24,25.90
2021,07,02,13,25,26.00
2021,07,02,13,26,26.00
2021,07,02,13,27,26.10
2021,07,02,13,28,26.20
2021,07,02,13,29,26.20
2021,07,02,13,30,26.20
2021,07,02,13,31,26.20
2021,07,02,13,32,26.20
2021,07,02,13,33,26.30
2021,07,02,13,34,26.30
2021,07,02,13,35,26.40
2021,07,02,13,36,26.40
2021,07,02,13,37,26.50
2021,07,02,13,38,26.50
2021,07,02,13,39,26.60
2021,07,02,13,40,26.60
2021,07,02,13,41,26.60
2021,07,02,13,42,26.60
2021,07,02,13,43,26.70
2021,07,02,13,44,26.70
2021,07,02,13,45,26.80
2021,07,02,13,46,26.90
2021,07,02,13,47,26.90
2021,07,02,13,48,26.90
2021,07,02,13,49,26.90
2021,07,02,13,50,26.90
2021,07,02,13,51,26.90
2021,07,02,13,52,26.90
2021,07,02,13,53,26.90
2021,07,02,13,54,26.90
2021,07,02,13,55,26.90
2021,07,02,13,56,27.00
2021,07,02,13,57,27.00
2021,07,02,13,58,27.00
2021,07,02,13,59,27.00
2021,07,02,14,00,27.00
2021,07,02,14,01,27.10
2021,07,02,14,02,27.10
2021,07,02,14,03,27.10
2021,07,02,14,04,27.00
2021,07,02,14,05,26.90
2021,07,02,14,06,26.90
2021,07,02,14,07,26.90
2021,07,02,14,08,26.90
2021,07,02,14,09,26.90
2021,07,02,14,10,26.90
2021,07,02,14,11,27.00
2021,07,02,14,12,27.00
2021,07,02,14,13,27.10
2021,07,02,14,14,27.20
2021,07,02,14,15,27.20
2021,07,02,14,16,27.20
2021,07,02,14,17,27.30
2021,07,02,14,18,27.40
2021,07,02,14,19,27.30
2021,07,02,14,20,27.30
2021,07,02,14,21,27.30
2021,07,02,14,22,27.20
2021,07,02,14,23,27.10
2021,07,02,14,24,27.00
2021,07,02,14,25,26.90
2021,07,02,14,26,26.90
2021,07,02,14,27,26.90
2021,07,02,14,28,26.90
2021,07,02,14,29,26.90
2021,07,02,14,30,26.90
2021,07,02,14,31,26.90
2021,07,02,14,32,26.90
2021,07,02,14,33,26.90
2021,07,02,14,34,26.80
2021,07,02,14,35,26.80
2021,07,02,14,36,26.80
2021,07,02,14,37,26.80
2021,07,02,14,38,26.80
2021,07,02,14,39,26.90
2021,07,02,14,40,26.90
2021,07,02,14,41,27.00
2021,07,02,14,42,27.00
2021,07,02,14,43,27.00
2021,07,02,14,44,27.10
2021,07,02,14,45,27.10
2021,07,02,14,46,27.10
2021,07,02,14,47,27.10
2021,07,02,14,48,27.20
2021,07,02,14,49,27.20
2021,07,02,14,50,27.30
2021,07,02,14,51,27.30
2021,07,02,14,52,27.30
2021,07,02,14,53,27.40
2021,07,02,14,54,27.50
2021,07,02,14,55,27.60
2021,07,02,14,56,27.60
2021,07,02,14,57,27.60
2021,07,02,14,58,27.60
2021,07,02,14,59,27.50
2021,07,02,15,00,27.50
2021,07,02,15,01,27.40
2021,07,02,15,02,27.40
2021,07,02,15,03,27.40
2021,07,02,15,04,27.40
2021,07,02,15,05,27.40
2021,07,02,15,06,27.40
2021,07,02,15,07,27.50
2021,07,02,15,08,27.50
2021,07,02,15,09,27.50
2021,07,02,15,10,27.40
2021,07,02,15,11,27.40
2021,07,02,15,12,27.40
2021,07,02,15,13,27.40
2021,07,02,15,14,27.40
2021,07,02,15,15,27.40
2021,07,02,15,16,27.50
2021,07,02,15,17,27.60
2021,07,02,15,18,27.60
2021,07,02,15,19,27.60
2021,07,02,15,20,27.60
2021,07,02,15,21,27.60
2021,07,02,15,22,27.50
2021,07,02,15,23,27.60
2021,07,02,15,24,27.70
2021,07,02,15,25,27.70
2021,07,02,15,26,27.70
2021,07,02,15,27,27.70
2021,07,02,15,28,27.70
2021,07,02,15,29,27.60
2021,07,02,15,30,27.70
2021,07,02,15,31,27.70
2021,07,02,15,32,27.80
2021,07,02,15,33,27.80
2021,07,02,15,34,27.80
2021,07,02,15,35,27.80
2021,07,02,15,36,27.90
2021,07,02,15,37,27.90
2021,07,02,15,38,27.90
2021,07,02,15,39,28.00
2021,07,02,15,40,28.00
2021,07,02,15,41,28.00
2021,07,02,15,42,28.00
2021,07,02,15,43,27.90
2021,07,02,15,44,27.80
2021,07,02,15,45,27.80
2021,07,02,15,46,27.70
2021,07,02,15,47,27.70
2021,07,02,15,48,27.70
2021,07,02,15,49,27.80
2021,07,02,15,50,27.70
2021,07,02,15,51,27.80
2021,07,02,15,52,27.80
2021,07,02,15,53,27.80
2021,07,02,15,54,27.80
2021,07,02,15,55,27.80
2021,07,02,15,56,27.90
2021,07,02,15,57,28.00
2021,07,02,15,58,28.10
2021,07,02,15,59,28.20
2021,07,02,16,00,28.30
2021,07,02,16,01,28.30
2021,07,02,16,02,28.40
2021,07,02,16,03,28.40
2021,07,02,16,04,28.40
2021,07,02,16,05,28.30
2021,07,02,16,06,28.30
2021,07,02,16,07,28.30
2021,07,02,16,08,28.40
2021,07,02,16,09,28.40
2021,07,02,16,10,28.40
2021,07,02,16,11,28.50
2021,07,02,16,12,28.40
2021,07,02,16,13,28.30
2021,07,02,16,14,28.20
2021,07,02,16,15,28.20
2021,07,02,16,16,28.10
2021,07,02,16,17,28.10
2021,07,02,16,18,28.20
2021,07,02,16,19,28.30
2021,07,02,16,20,28.30
2021,07,02,16,21,28.30
2021,07,02,16,22,28.30
2021,07,02,16,23,28.30
2021,07,02,16,24,28.30
2021,07,02,16,25,28.30
2021,07,02,16,26,28.30
2021,07,02,16,27,28.30
2021,07,02,16,28,28.30
2021,07,02,16,29,28.30
2021,07,02,16,30,28.40
2021,07,02,16,31,28.40
2021,07,02,16,32,28.40
2021,07,02,16,33,28.40
2021,07,02,16,34,28.40
2021,07,02,16,35,28.40
2021,07,02,16,36,28.40
2021,07,02,16,37,28.50
2021,07,02,16,38,28.50
2021,07,02,16,39,28.40
2021,07,02,16,40,28.30
2021,07,02,16,41,28.30
2021,07,02,16,42,28.20
2021,07,02,16,43,28.20
2021,07,02,16,44,28.20
2021,07,02,16,45,28.10
2021,07,02,16,46,28.10
2021,07,02,16,47,28.10
2021,07,02,16,48,28.10
2021,07,02,16,49,28.00
2021,07,02,16,50,27.90
2021,07,02,16,51,27.90
2021,07,02,16,52,27.80
2021,07,02,16,53,27.80
2021,07,02,16,54,27.70
2021,07,02,16,55,27.70
2021,07,02,16,56,27.80
2021,07,02,16,57,27.80
2021,07,02,16,58,27.90
2021,07,02,16,59,27.90
2021,07,02,17,00,27.90
2021,07,02,17,01,27.90
2021,07,02,17,02,27.90
2021,07,02,17,03,28.00
2021,07,02,17,04,28.00
2021,07,02,17,05,28.10
2021,07,02,17,06,28.10
2021,07,02,17,07,28.10
2021,07,02,17,08,28.10
2021,07,02,17,09,28.10
2021,07,02,17,10,28.10
2021,07,02,17,11,28.10
2021,07,02,17,12,28.10
2021,07,02,17,13,28.10
2021,07,02,17,14,28.20
2021,07,02,17,15,28.20
2021,07,02,17,16,28.30
2021,07,02,17,17,28.30
2021,07,02,17,18,28.30
2021,07,02,17,19,28.30